Terminal Aerodrome Forecast
Issued by NWS Duluth, MN

Home | Current Version | Previous Version | Text Only | Print | Product List | Glossary On
Versions: 1 2 3 4 5 6 7 8 9 10 11 12 13 14 15 16 17 18 19 20 21 22 23 24 25 26 27
108
FTUS43 KDLH 221546 AAC
TAFDLH
TAF AMD
KDLH 221546Z 2216/2312 22008KT P6SM VCSH BKN007
      TEMPO 2216/2217 SCT007
     FM221700 10007KT P6SM SCT035
     FM222100 12007KT P6SM VCSH BKN060
      TEMPO 2223/2301 5SM -TSRA SCT020 BKN035CB
     FM230500 25004KT 6SM BR SCT015 BKN050=

USA.gov is the U.S. government's official web portal to all federal, state and local government web resources and services.